Flag for Austria Past Weather in Kirchdorf an der Krems, Upper Austria, Austria — Yesterday and Last 2 Weeks

Now
77 °F

Warm.


Feels Like: 79 °F
Forecast: 64 / 92 °F
Wind: 2 mph from Southwest

Location: Kremsmuenster

Current Time: Jun 25, 2016 at 12:18:07 AM

Latest Report: Jun 24, 2016 at 11:00 PM


Visibility: N/A

Pressure: 29.90 "Hg

Humidity: 68%

Dew Point: 66 °F

Location of Kirchdorf an der KremsLocation

Past Weather in Kirchdorf an der Krems — Graph

°F

Kirchdorf an der Krems Temperature Yesterday

Maximum temperature yesterday: 89 °F (at 3:00 PM)
Minimum temperature yesterday: 65 °F (at 6:00 AM)
Average temperature yesterday: 77 °F

High & Low Weather Summary for the Past Weeks

 TemperatureHumidityPressure
High89 °F (Jun 24, 3:00 PM)94% (Jun 21, 6:00 AM)30.29 "Hg (Jun 21, 6:00 AM)
Low52 °F (Jun 21, 6:00 AM)38% (Jun 16, 3:00 PM)29.44 "Hg (Jun 16, 5:00 PM)
Average64 °F73%29.92 "Hg
* Reported Jun 9 11:00 PM — Jun 24 11:00 PM, Kirchdorf an der Krems, Weather by CustomWeather, © 2016

Note: Actual official high and low records may vary slightly from our data, if they occured in-between our weather recording intervals... More about our weather records

Advertising

Kirchdorf an der Krems Weather History for the Previous 24 Hours

Scroll right to see more
 ConditionsComfort  
Time TempWeatherWind HumidityBarometerVisibility
11:00 PM
Fri, Jun 24
77 °FWarm.2 mph68%29.90 "HgN/A
10:00 PM79 °FWarm.1 mph62%29.91 "HgN/A
9:00 PM81 °FWarm.1 mph56%29.91 "HgN/A
8:00 PM85 °FScattered clouds.3 mph49%29.90 "Hg12 mi
7:00 PM87 °FWarm.3 mph40%29.90 "HgN/A
6:00 PM89 °FHot.3 mph39%29.90 "HgN/A
3:00 PM89 °FHot.2 mph43%29.95 "HgN/A
2:00 PM87 °FWarm.1 mph46%29.97 "HgN/A
1:00 PM86 °FWarm.1 mph45%29.99 "HgN/A
12:00 PM84 °FWarm.No wind55%30.01 "HgN/A
11:00 AM82 °FPassing clouds.No wind61%30.02 "Hg31 mi
10:00 AM77 °FMild.2 mph67%30.04 "HgN/A
9:00 AM73 °FMild.1 mph75%30.05 "HgN/A
8:00 AM70 °FSunny.No wind80%30.06 "Hg34 mi
7:00 AM66 °FSunny.No wind85%30.06 "Hg34 mi
6:00 AM65 °FMild.2 mph89%30.06 "HgN/A
5:00 AM65 °FMild.1 mph86%30.06 "HgN/A
4:00 AM67 °FMild.2 mph86%30.06 "HgN/A
3:00 AM67 °FMild.1 mph83%30.06 "HgN/A
2:00 AM70 °FMild.3 mph77%30.07 "HgN/A
1:00 AM71 °FMild.2 mph73%30.08 "HgN/A
12:00 AM73 °FMild.3 mph69%30.09 "HgN/A
Weather by CustomWeather, © 2016

See weather overviewHow to use our weather pages